Etusivu
METAR-TAF:

METAR-TAF

Lentoasemat :

Tanegashima, Japani

Leveyspiiri: 30-33N, Pituuspiiri: 130-57E, korkeus merenpinnasta: 92 m

Tämänhetkinen sää

Tämä raportti tehtiin 9 tuntia ja 49 minuuttia sitten, kello 09.00 UTC
Tuuli 11 kn luoteesta
Lämpötila 15°C
Kosteus 63%
Ilmanpaine 1014 hPa
Näkyvyys 10 km tai enemmän
Muutamia pilviä 3000 ft:n korkeudessa

METAR: RJFG 190900Z 31011KT 9999 FEW030 15/08 Q1014

Aika: 03:49 (18:49 UTC)


TAF: puuttuu

Säähavainnot ja -ennusteet yli 4000 lentoasemalta (METAR- ja TAF-raportit).

Käytössä olevat sääasemat on merkitty karttaan keltaisilla ja punaisilla pisteillä.

Aseta hiiri pisteen päälle nähdäksesi sääaseman nimen.

Klikkaa sitten nähdäksesi säähavainnot ja -ennusteet.

Kartan vaihtaminen: klikkaa mustalla rastilla varustettuja vihreitä pisteitä, niin voit zoomata sisään; viivalla varustettua vihreää pistettä, niin voit zoomata ulos tai vihreitä nuolia, niin pääset viereisille kartoille.


METAR-TAF: